Weather History for Lorain / Elyria, OH

Change the Weather History Date:

Friday, January 18, 2013

  Actual Average (KCLE) Record (KCLE)
Temperature  
Mean Temperature 28 °F 28 °F  
Max Temperature 37 °F 34 °F 64 °F (1996)
Min Temperature 19 °F 21 °F -14 °F (1994)
Degree Days  
Heating Degree Days 38 37  
Month to date heating degree days 665  
Since 1 July heating degree days 2772  
Cooling Degree Days 0 0  
Month to date cooling degree days 0  
Year to date cooling degree days 0  
Moisture  
Dew Point 15 °F    
Average Humidity 57    
Maximum Humidity 74    
Minimum Humidity 44    
Precipitation  
Precipitation 0.00 in 0.08 in 0.46 in (1974)
Month to date precipitation 1.67  
Year to date precipitation 1.67  
Snow  
Snow 0.00 in 0.70 in - ()
Month to date snowfall 10.8  
Since 1 July snowfall 29.4  
Snow Depth -    
Sea Level Pressure  
Sea Level Pressure 30.35 in    
Wind  
Wind Speed 13 mph (SW)    
Max Wind Speed 24 mph    
Max Gust Speed 34 mph    
Visibility 10 miles    
Events Snow    
T = Trace of Precipitation, MM = Missing Value Source: NWS Daily Summary

Daily Weather History Graph

Daily Weather History Graph

Search for Another Location

Airport:

Trip Planner

Search our weather history database for the weather conditions in past years. The results will help you decide how hot, cold, wet, or windy it might be!

Date:

Astronomy

Jan. 18, 2013 Rise Set
Actual Time 7:50 AM EST 5:28 PM EST
Civil Twilight 7:20 AM EST 5:58 PM EST
Nautical Twilight 6:46 AM EST 6:32 PM EST
Astronomical Twilight 6:13 AM EST 7:05 PM EST
Moon 11:23 AM EST (1/18) 12:22 AM EST (1/18)
Length of Visible Light 10h 37m
Length of Day
9h 37m
Waxing Crescent, 47% of the Moon is Illuminated
Jan 18
Waxing Crescent
Jan 18
First Quarter
Jan 26
Full
Feb 3
Last Quarter
Feb 10
New

Hourly Weather History & Observations

Time (EST) Temp. Windchill Dew Point Humidity Pressure Visibility Wind Dir Wind Speed Gust Speed Precip Events Conditions
12:53 AM 23.0 °F 10.1 °F 10.9 °F 60% 30.35 in 10.0 mi North 15.0 mph 24.2 mph N/A   Overcast
1:53 AM 23.0 °F 11.7 °F 10.0 °F 58% 30.39 in 10.0 mi North 11.5 mph 20.7 mph N/A   Overcast
2:53 AM 23.0 °F 10.6 °F 9.0 °F 55% 30.42 in 10.0 mi NW 13.8 mph 21.9 mph N/A   Overcast
3:53 AM 24.1 °F 12.0 °F 10.0 °F 55% 30.43 in 10.0 mi NW 13.8 mph - N/A   Overcast
4:53 AM 23.0 °F 11.7 °F 10.9 °F 60% 30.44 in 10.0 mi WNW 11.5 mph - N/A   Overcast
5:53 AM 21.0 °F 14.6 °F 12.0 °F 68% 30.45 in 10.0 mi WSW 4.6 mph - N/A   Clear
6:53 AM 19.9 °F 11.1 °F 12.0 °F 71% 30.47 in 10.0 mi SW 6.9 mph - N/A   Clear
7:53 AM 19.9 °F 11.1 °F 12.9 °F 74% 30.48 in 10.0 mi WSW 6.9 mph - N/A   Scattered Clouds
8:53 AM 21.9 °F 12.5 °F 14.0 °F 72% 30.50 in 10.0 mi SW 8.1 mph - N/A   Clear
9:53 AM 25.0 °F 14.2 °F 16.0 °F 69% 30.50 in 10.0 mi SW 11.5 mph - N/A   Clear
10:53 AM 27.0 °F 18.0 °F 17.1 °F 66% 30.49 in 10.0 mi WSW 9.2 mph - N/A   Clear
11:53 AM 28.9 °F 18.6 °F 17.1 °F 61% 30.45 in 10.0 mi SW 12.7 mph - N/A   Clear
12:53 PM 30.0 °F 19.5 °F 17.1 °F 59% 30.40 in 10.0 mi SW 13.8 mph - N/A   Mostly Cloudy
1:53 PM 30.9 °F 21.2 °F 16.0 °F 54% 30.37 in 10.0 mi SW 12.7 mph 19.6 mph N/A   Overcast
2:53 PM 33.1 °F 22.6 °F 15.1 °F 48% 30.33 in 10.0 mi SW 16.1 mph - N/A   Mostly Cloudy
3:53 PM 35.1 °F 25.9 °F 15.1 °F 44% 30.31 in 10.0 mi SSW 13.8 mph - N/A   Partly Cloudy
4:53 PM 34.0 °F 23.8 °F 16.0 °F 48% 30.27 in 10.0 mi SSW 16.1 mph 26.5 mph N/A   Clear
5:53 PM 33.1 °F 23.0 °F 16.0 °F 50% 30.26 in 10.0 mi SSW 15.0 mph - N/A   Clear
6:53 PM 32.0 °F 19.8 °F 17.1 °F 54% 30.24 in 10.0 mi SSW 20.7 mph 28.8 mph N/A   Clear
7:53 PM 33.1 °F 21.2 °F 17.1 °F 52% 30.22 in 10.0 mi SSW 20.7 mph 29.9 mph N/A   Clear
8:53 PM 33.1 °F 21.2 °F 18.0 °F 54% 30.18 in 10.0 mi SSW 20.7 mph 34.5 mph 0.00 in   Mostly Cloudy
9:53 PM 34.0 °F 22.4 °F 18.0 °F 52% 30.15 in 10.0 mi SSW 20.7 mph 34.5 mph N/A   Clear
10:53 PM 36.0 °F 24.2 °F 18.0 °F 48% 30.12 in 10.0 mi SSW 24.2 mph 33.4 mph 0.00 in   Clear
11:53 PM 37.0 °F 26.7 °F 19.0 °F 48% 30.10 in 9.0 mi SW 19.6 mph 28.8 mph 0.00 in Snow Light Snow